TimeCST,TemperatureF,Dew PointF,Humidity,Sea Level PressureIn,VisibilityMPH,Wind Direction,Wind SpeedMPH,Gust SpeedMPH,PrecipitationIn,Events,Conditions,WindDirDegrees,DateUTC
12:15 AM,10.4,6.8,85,30.13,10.0,South,3.5,-,N/A,,Unknown,170,2013-12-15 06:15:00
12:35 AM,12.2,8.6,85,30.11,10.0,South,5.8,-,N/A,,Unknown,190,2013-12-15 06:35:00
12:55 AM,12.2,8.6,85,30.13,10.0,SSW,4.6,-,N/A,,Unknown,210,2013-12-15 06:55:00
1:15 AM,12.2,8.6,85,30.14,10.0,Calm,Calm,-,N/A,,Unknown,0,2013-12-15 07:15:00
1:35 AM,12.2,8.6,85,30.13,10.0,Calm,Calm,-,N/A,,Unknown,0,2013-12-15 07:35:00
1:55 AM,12.2,8.6,85,30.11,10.0,Calm,Calm,-,N/A,,Unknown,0,2013-12-15 07:55:00
2:15 AM,12.2,8.6,85,30.11,10.0,Calm,Calm,-,N/A,,Unknown,0,2013-12-15 08:15:00
2:35 AM,12.2,8.6,85,30.10,10.0,Calm,Calm,-,N/A,,Unknown,0,2013-12-15 08:35:00
2:55 AM,14.0,10.4,86,30.10,10.0,Calm,Calm,-,N/A,,Unknown,0,2013-12-15 08:55:00
3:15 AM,14.0,10.4,86,30.10,10.0,Calm,Calm,-,N/A,,Mostly Cloudy,0,2013-12-15 09:15:00
3:35 AM,14.0,10.4,86,30.09,10.0,Calm,Calm,-,N/A,,Unknown,0,2013-12-15 09:35:00
3:55 AM,14.0,10.4,86,30.09,10.0,Calm,Calm,-,N/A,,Unknown,0,2013-12-15 09:55:00
4:15 AM,14.0,10.4,86,30.09,10.0,North,5.8,-,N/A,,Unknown,360,2013-12-15 10:15:00
4:35 AM,14.0,10.4,86,30.04,10.0,South,4.6,-,N/A,,Unknown,170,2013-12-15 10:35:00
4:55 AM,14.0,10.4,86,30.09,10.0,NNE,5.8,-,N/A,,Unknown,30,2013-12-15 10:55:00
5:15 AM,14.0,10.4,86,30.08,10.0,ENE,8.1,-,N/A,,Unknown,60,2013-12-15 11:15:00
5:35 AM,14.0,10.4,86,30.07,10.0,East,5.8,-,N/A,,Unknown,80,2013-12-15 11:35:00
5:55 AM,14.0,8.6,79,30.08,10.0,ENE,5.8,-,N/A,,Overcast,60,2013-12-15 11:55:00
6:15 AM,14.0,8.6,79,30.08,10.0,NE,8.1,-,N/A,,Overcast,40,2013-12-15 12:15:00
6:35 AM,14.0,8.6,79,30.07,10.0,ENE,4.6,-,N/A,,Overcast,70,2013-12-15 12:35:00
6:55 AM,14.0,8.6,79,30.07,10.0,ENE,5.8,-,N/A,,Overcast,70,2013-12-15 12:55:00
7:15 AM,14.0,8.6,79,30.07,10.0,NE,4.6,-,N/A,,Unknown,50,2013-12-15 13:15:00
7:35 AM,14.0,8.6,79,30.07,10.0,Calm,Calm,-,N/A,,Unknown,0,2013-12-15 13:35:00
7:55 AM,14.0,8.6,79,30.07,10.0,ENE,4.6,-,N/A,,Overcast,70,2013-12-15 13:55:00
8:15 AM,14.0,8.6,79,30.07,10.0,ENE,6.9,-,N/A,,Overcast,70,2013-12-15 14:15:00
8:35 AM,14.0,8.6,79,30.08,10.0,East,5.8,-,N/A,,Overcast,90,2013-12-15 14:35:00
8:55 AM,14.0,8.6,79,30.09,10.0,ENE,4.6,-,N/A,,Overcast,70,2013-12-15 14:55:00
9:15 AM,14.0,8.6,79,30.08,10.0,East,5.8,-,N/A,,Overcast,80,2013-12-15 15:15:00
9:35 AM,14.0,8.6,79,30.09,10.0,ENE,5.8,-,N/A,,Overcast,60,2013-12-15 15:35:00
9:55 AM,14.0,8.6,79,30.10,10.0,East,6.9,-,N/A,,Overcast,80,2013-12-15 15:55:00
10:15 AM,14.0,8.6,79,30.10,9.0,East,6.9,-,N/A,,Overcast,90,2013-12-15 16:15:00
10:35 AM,15.8,8.6,73,30.09,10.0,East,5.8,-,N/A,,Overcast,100,2013-12-15 16:35:00
10:55 AM,14.0,8.6,79,30.09,8.0,East,5.8,-,N/A,,Overcast,100,2013-12-15 16:55:00
11:15 AM,15.8,8.6,73,30.09,9.0,East,6.9,-,N/A,,Mostly Cloudy,100,2013-12-15 17:15:00
11:35 AM,15.8,8.6,73,30.08,9.0,East,4.6,-,N/A,,Mostly Cloudy,80,2013-12-15 17:35:00
11:55 AM,15.8,10.4,79,30.06,10.0,East,6.9,-,N/A,,Overcast,80,2013-12-15 17:55:00
12:15 PM,15.8,10.4,79,30.05,10.0,Variable,5.8,12.7,N/A,,Overcast,0,2013-12-15 18:15:00
12:35 PM,15.8,10.4,79,30.04,9.0,Variable,6.9,-,N/A,,Overcast,0,2013-12-15 18:35:00
12:55 PM,15.8,10.4,79,30.03,9.0,ESE,5.8,-,N/A,,Overcast,110,2013-12-15 18:55:00
1:15 PM,15.8,10.4,79,30.02,10.0,ESE,6.9,-,N/A,,Overcast,120,2013-12-15 19:15:00
1:35 PM,15.8,10.4,79,30.01,9.0,East,8.1,-,N/A,,Overcast,90,2013-12-15 19:35:00
1:55 PM,15.8,10.4,79,30.01,10.0,ESE,6.9,-,N/A,,Overcast,120,2013-12-15 19:55:00
2:15 PM,15.8,10.4,79,30.01,10.0,East,9.2,-,N/A,,Overcast,90,2013-12-15 20:15:00
2:35 PM,15.8,10.4,79,30.01,10.0,ESE,6.9,-,N/A,,Overcast,110,2013-12-15 20:35:00
2:55 PM,15.8,10.4,79,30.02,10.0,Variable,5.8,-,N/A,,Overcast,0,2013-12-15 20:55:00
3:15 PM,15.8,10.4,79,30.02,10.0,ESE,5.8,-,N/A,,Overcast,110,2013-12-15 21:15:00
3:35 PM,15.8,10.4,79,30.01,10.0,East,8.1,-,N/A,,Overcast,90,2013-12-15 21:35:00
3:55 PM,15.8,10.4,79,30.01,10.0,ESE,8.1,-,N/A,,Overcast,110,2013-12-15 21:55:00
4:15 PM,15.8,10.4,79,30.00,10.0,East,9.2,-,N/A,,Overcast,100,2013-12-15 22:15:00
4:35 PM,15.8,8.6,73,30.00,10.0,East,11.5,-,N/A,,Overcast,100,2013-12-15 22:35:00
4:55 PM,15.8,8.6,73,29.99,10.0,ESE,6.9,12.7,N/A,,Overcast,110,2013-12-15 22:55:00
5:15 PM,15.8,8.6,73,30.00,10.0,Variable,6.9,-,N/A,,Overcast,0,2013-12-15 23:15:00
5:35 PM,15.8,10.4,79,30.01,10.0,East,8.1,-,N/A,,Unknown,100,2013-12-15 23:35:00
5:55 PM,15.8,8.6,73,30.02,10.0,East,5.8,12.7,N/A,,Unknown,80,2013-12-15 23:55:00
6:15 PM,15.8,8.6,73,30.02,10.0,East,9.2,-,N/A,,Unknown,80,2013-12-16 00:15:00
6:35 PM,14.0,8.6,79,30.02,10.0,East,8.1,-,N/A,,Overcast,80,2013-12-16 00:35:00
6:55 PM,14.0,8.6,79,30.02,10.0,East,10.4,-,N/A,,Unknown,90,2013-12-16 00:55:00
7:15 PM,14.0,8.6,79,30.02,10.0,East,8.1,-,N/A,,Unknown,90,2013-12-16 01:15:00
7:35 PM,14.0,8.6,79,30.01,10.0,East,5.8,11.5,N/A,,Unknown,100,2013-12-16 01:35:00
7:55 PM,14.0,6.8,73,30.01,10.0,East,8.1,-,N/A,,Unknown,90,2013-12-16 01:55:00
8:15 PM,14.0,8.6,79,30.00,10.0,East,6.9,-,N/A,,Unknown,80,2013-12-16 02:15:00
8:35 PM,12.2,6.8,79,30.01,10.0,East,5.8,-,N/A,,Unknown,80,2013-12-16 02:35:00
8:55 PM,12.2,6.8,79,30.01,10.0,ENE,4.6,-,N/A,,Unknown,70,2013-12-16 02:55:00
9:15 PM,12.2,6.8,79,30.02,10.0,ENE,6.9,-,N/A,,Unknown,60,2013-12-16 03:15:00
9:35 PM,12.2,6.8,79,30.02,10.0,ENE,5.8,-,N/A,,Unknown,70,2013-12-16 03:35:00
9:55 PM,10.4,6.8,85,30.02,10.0,NE,5.8,-,N/A,,Unknown,50,2013-12-16 03:55:00
10:15 PM,10.4,5.0,79,30.02,10.0,East,6.9,-,N/A,,Unknown,80,2013-12-16 04:15:00
10:35 PM,10.4,5.0,79,30.01,10.0,Variable,4.6,-,N/A,,Unknown,0,2013-12-16 04:35:00
10:55 PM,10.4,5.0,79,30.02,10.0,Variable,4.6,-,N/A,,Unknown,0,2013-12-16 04:55:00
11:15 PM,10.4,5.0,79,30.01,10.0,Calm,Calm,-,N/A,,Unknown,0,2013-12-16 05:15:00
11:35 PM,10.4,5.0,79,30.01,10.0,Variable,5.8,-,N/A,,Unknown,0,2013-12-16 05:35:00
11:55 PM,10.4,5.0,79,30.02,10.0,East,10.4,16.1,N/A,,Unknown,90,2013-12-16 05:55:00